map of CGB home
Great Circle Mapper logo
CGB - Airport
Location
City:  Cuiabá (Várzea Grande)), Mato Grosso, Brazil
Name:Marechal Rondon International Airport
ICAO / IATA:SBCY / CGB

Details
Type:Airport (Aerodrome, Airfield)
Use:Public/Civil, International (customs port of entry)
Latitude:15°39'11"S (-15.652930)
Longitude:56°07'00"W (-56.116718)
Datum:WGS 1984
Elevation:617 ft (188 m)
Runways:1
Longest:7546 × 148 ft (2300 × 45 m), paved

Time
Time Zone:UTC-4 (DST-3)
Local Time:

Weather
METAR:SBCY 201200Z 05007KT 9999 FEW012 SCT020 BKN090 24/21 Q1017
TAF:SBCY 200400Z 2006/2106 36003KT CAVOK TN26/2007Z TX38/2018Z
BECMG 2011/2013 33008KT
BECMG 2016/2018 24008KT SCT020
BECMG 2022/2024 36003KT CAVOK
RMK PEH

Related Locations
Nearby:
Farthest:RPLJ: 12320 mi / 19827 km
Jomalig Island, Quezon, PH

Find:

   beyond  
but within

Other Information
Maps:
NOTAMs:
Links:
Sources:

  
flag of Brazil
flag of Mato Grosso
  

Sectional Chart

Flight Planning
at skyvector.com

Satellite Image

Google Maps Satellite View

 

Copyright © 2004-2014 Karl L. Swartz. All rights reserved.
The Great Circle Mapper name and logo are trademarks of the Great Circle Mapper.
All other trademarks mentioned herein belong to their respective owners.
Please see credits for attibutions and further copyright information.

  Follow gcmap on Facebook Follow gcmap on Twitter

hCard Microformat

Geo Microformat